EW3148 Weather Reports


Display with metric or nautical units.
time (UTC)temp
F
wind
direction
speed
MPH
gust
MPH
rain 1hr
in
rain 24hr
in
rain mn
in
humidity
%
barometer
mb
20260505012747 76 184 3.0 9.0 0.00 0.00 0.00 72 1006.8
20260505011758 77 160 3.0 13.0 0.00 0.00 0.00 71 1006.7
20260505010811 77 162 4.0 15.0 0.00 0.00 0.00 69 1006.7
20260505005735 77 204 5.0 15.0 0.00 0.00 0.00 68 1006.6
20260505004709 78 211 6.0 13.0 0.00 0.00 0.00 67 1006.5
20260505003732 78 197 5.0 19.0 0.00 0.00 0.00 65 1006.5
20260505002708 79 186 7.0 19.0 0.00 0.00 0.00 64 1006.4
20260505001732 80 172 5.0 16.0 0.00 0.00 0.00 63 1006.4
20260505000728 80 174 7.0 16.0 0.00 0.00 0.00 63 1006.5
20260504235719 80 183 5.0 13.0 0.00 0.00 0.00 62 1006.7
20260504234728 80 207 6.0 16.0 0.00 0.00 0.00 62 1006.8
20260504233707 80 174 5.0 16.0 0.00 0.00 0.00 61 1006.9
20260504231541 81 180 7.0 17.0 0.00 0.00 0.00 61 1007.0
20260504230540 80 183 7.0 19.0 0.00 0.00 0.00 61 1007.0
20260504225513 81 197 7.0 19.0 0.00 0.00 0.00 59 1007.4
20260504223441 81 184 5.0 18.0 0.00 0.00 0.00 59 1007.6
20260504222445 81 220 7.0 18.0 0.00 0.00 0.00 60 1007.6
20260504221447 81 155 7.0 16.0 0.00 0.00 0.00 60 1007.7
20260504220509 82 207 6.0 23.0 0.00 0.00 0.00 60 1007.8
20260504215502 81 157 8.0 23.0 0.00 0.00 0.00 59 1007.8
20260504214442 82 180 7.0 19.0 0.00 0.00 0.00 60 1007.8
20260504213422 81 175 9.0 19.0 0.00 0.00 0.00 60 1007.9
20260504212433 81 164 7.0 18.0 0.00 0.00 0.00 59 1007.9
20260504210331 83 148 5.0 18.0 0.00 0.00 0.00 59 1008.3
20260504205328 82 163 8.0 20.0 0.00 0.00 0.00 58 1008.5
20260504204305 82 138 7.0 20.0 0.00 0.00 0.00 58 1008.6
20260504203308 82 225 7.0 14.0 0.00 0.00 0.00 59 1008.8
20260504202315 83 152 6.0 18.0 0.00 0.00 0.00 59 1009.0
20260504200114 82 207 8.0 15.0 0.00 0.00 0.00 58 1009.3
20260504195139 83 194 5.0 15.0 0.00 0.00 0.00 58 1009.5
20260504194134 82 162 5.0 17.0 0.00 0.00 0.00 59 1009.8
20260504193113 81 232 5.0 17.0 0.00 0.00 0.00 59 1009.8
20260504192114 80 192 4.0 20.0 0.00 0.00 0.00 63 1010.0
20260504191123 80 172 7.0 20.0 0.00 0.00 0.00 61 1010.2
20260504190148 79 174 6.0 17.0 0.00 0.00 0.00 62 1010.3
20260504185140 79 192 8.0 18.0 0.00 0.00 0.00 61 1010.3
20260504184114 79 213 7.0 18.0 0.00 0.00 0.00 61 1010.5
20260504181953 79 172 6.0 15.0 0.00 0.00 0.00 61 1010.9
20260504181003 78 196 5.0 15.0 0.00 0.00 0.00 63 1011.0
20260504180015 78 221 5.0 16.0 0.00 0.00 0.00 64 1011.1
20260504174950 78 195 6.0 19.0 0.00 0.00 0.00 63 1011.1
20260504173941 77 188 6.0 19.0 0.00 0.00 0.00 66 1011.3
20260504172956 77 182 6.0 17.0 0.00 0.00 0.00 66 1011.7
20260504171932 76 149 6.0 17.0 0.00 0.00 0.00 67 1011.9
20260504150437 69 209 5.0 13.0 0.00 0.00 0.00 77 1012.7
20260504141240 68 167 4.0 15.0 0.00 0.00 0.00 76 1012.6
20260504140259 67 140 6.0 15.0 0.00 0.00 0.00 77 1012.7
20260504080104 63 163 3.0 9.0 0.00 0.00 0.00 78 1013.3
20260504050641 65 171 3.0 10.0 0.00 0.00 0.00 68 1015.5
20260504045636 65 151 3.0 9.0 0.00 0.00 0.00 67 1015.5
20260504044632 65 155 4.0 8.0 0.00 0.00 0.00 66 1015.4
20260504042512 66 187 3.0 8.0 0.00 0.00 0.00 63 1015.5
20260504040352 67 149 4.0 10.0 0.00 0.00 0.00 60 1015.6
20260504035406 67 180 3.0 14.0 0.00 0.00 0.00 59 1015.7
20260504034355 67 211 3.0 14.0 0.00 0.00 0.00 57 1015.7
20260504033416 67 165 2.0 8.0 0.00 0.00 0.00 56 1015.6
20260504032346 68 184 3.0 8.0 0.00 0.00 0.00 54 1015.5
20260504030240 68 186 2.0 4.0 0.00 0.00 0.00 53 1015.5
20260504025250 68 169 1.0 5.0 0.00 0.00 0.00 53 1015.5
20260504024303 69 200 1.0 5.0 0.00 0.00 0.00 52 1015.5
20260504023313 69 174 2.0 5.0 0.00 0.00 0.00 52 1015.4
20260504022249 69 172 1.0 4.0 0.00 0.00 0.00 52 1015.5
20260504021217 69 197 1.0 5.0 0.00 0.00 0.00 51 1015.4
20260504020154 70 176 2.0 5.0 0.00 0.00 0.00 50 1015.4
20260504015157 70 177 1.0 5.0 0.00 0.00 0.00 49 1015.3